PIA452 OPSD-OPIS

Flight info

Callsign PIA452
Flight time 0h 50m
Altitude 30000
Route BIREB DCT DELDA DCT KAPMI DCT BOBAM
Aircraft A320/M-SDE3FGHIRWY/LB1

Departure

Time 2026-04-24 12:53
Airport Skardu International Airport (OPSD)

Arrival

Time 2026-04-24 13:44
Airport Islamabad International Airport (OPIS)
Time Latitude Longitude Altitude Speed Heading
2026-04-24 12:24 35.33066 75.54094 7363 ft 0 kts 147°
2026-04-24 12:46 35.33056 75.54124 7360 ft 7 kts 80°
2026-04-24 12:47 35.33099 75.54127 7359 ft 8 kts 330°
2026-04-24 12:47 35.33149 75.54152 7359 ft 10 kts 51°
2026-04-24 12:47 35.33194 75.54237 7359 ft 15 kts 57°
2026-04-24 12:47 35.33254 75.54345 7359 ft 13 kts 43°
2026-04-24 12:48 35.33339 75.54313 7354 ft 16 kts 328°
2026-04-24 12:48 35.33445 75.54229 7354 ft 19 kts 327°
2026-04-24 12:48 35.33559 75.54137 7353 ft 20 kts 326°
2026-04-24 12:48 35.33680 75.54039 7352 ft 21 kts 326°
2026-04-24 12:49 35.33806 75.53940 7356 ft 22 kts 327°
2026-04-24 12:49 35.33935 75.53839 7356 ft 22 kts 327°
2026-04-24 12:49 35.34064 75.53736 7358 ft 22 kts 327°
2026-04-24 12:49 35.34195 75.53631 7359 ft 23 kts 326°
2026-04-24 12:50 35.34330 75.53525 7359 ft 24 kts 327°
2026-04-24 12:50 35.34474 75.53410 7359 ft 25 kts 327°
2026-04-24 12:50 35.34626 75.53290 7358 ft 27 kts 327°
2026-04-24 12:50 35.34782 75.53166 7358 ft 27 kts 327°
2026-04-24 12:51 35.34938 75.53044 7355 ft 26 kts 327°
2026-04-24 12:51 35.35063 75.52936 7355 ft 18 kts 310°
2026-04-24 12:51 35.35135 75.52824 7356 ft 15 kts 325°
2026-04-24 12:51 35.35174 75.52848 7356 ft 6 kts 108°
2026-04-24 12:52 35.35150 75.52879 7357 ft 4 kts 148°
2026-04-24 12:52 35.35148 75.52881 7357 ft 0 kts 148°
2026-04-24 12:52 35.35106 75.52914 7355 ft 29 kts 147°
2026-04-24 12:53 35.34726 75.53213 7359 ft 98 kts 147°
2026-04-24 12:53 35.33987 75.53799 7356 ft 152 kts 147°
2026-04-24 12:53 35.33008 75.54581 7566 ft 174 kts 147°
2026-04-24 12:53 35.31983 75.55387 8234 ft 174 kts 148°
2026-04-24 12:54 35.30940 75.56204 8547 ft 189 kts 148°
2026-04-24 12:54 35.29775 75.57120 8674 ft 210 kts 148°
2026-04-24 12:54 35.28555 75.58253 8796 ft 233 kts 130°
2026-04-24 12:54 35.27859 75.60099 9148 ft 248 kts 99°
2026-04-24 12:55 35.27803 75.62217 9733 ft 254 kts 81°
2026-04-24 12:55 35.28252 75.64316 10343 ft 257 kts 68°
2026-04-24 12:55 35.29000 75.66325 11012 ft 261 kts 63°
2026-04-24 12:55 35.29815 75.68331 11570 ft 266 kts 63°
2026-04-24 12:56 35.30639 75.70322 12122 ft 266 kts 63°
2026-04-24 12:56 35.31488 75.72335 12791 ft 268 kts 63°
2026-04-24 12:56 35.32529 75.74226 13431 ft 271 kts 42°
2026-04-24 12:56 35.34153 75.75389 14036 ft 274 kts 14°
2026-04-24 12:57 35.36048 75.75512 14593 ft 276 kts 346°
2026-04-24 12:57 35.37784 75.74559 15156 ft 276 kts 319°
2026-04-24 12:57 35.38973 75.72745 15705 ft 276 kts 291°
2026-04-24 12:57 35.39351 75.70470 16266 ft 274 kts 264°
2026-04-24 12:58 35.38835 75.68251 16851 ft 273 kts 239°
2026-04-24 12:58 35.37790 75.66340 17452 ft 275 kts 233°
2026-04-24 12:58 35.36528 75.64587 18080 ft 276 kts 216°
2026-04-24 12:58 35.34786 75.63630 18649 ft 278 kts 190°
2026-04-24 12:59 35.32848 75.63409 19169 ft 281 kts 184°
2026-04-24 12:59 35.30885 75.63344 19695 ft 284 kts 184°
2026-04-24 12:59 35.28896 75.63325 20251 ft 286 kts 184°
2026-04-24 12:59 35.26952 75.62956 20760 ft 283 kts 204°
2026-04-24 13:00 35.25318 75.61661 21232 ft 282 kts 229°
2026-04-24 13:00 35.24341 75.59606 21750 ft 282 kts 254°
2026-04-24 13:00 35.24215 75.57258 22260 ft 286 kts 278°
2026-04-24 13:00 35.24973 75.54975 22718 ft 298 kts 302°
2026-04-24 13:01 35.26498 75.53212 23260 ft 308 kts 320°
2026-04-24 13:01 35.28310 75.51764 23699 ft 313 kts 322°
2026-04-24 13:01 35.30186 75.50384 24059 ft 316 kts 326°
2026-04-24 13:01 35.32143 75.49122 24486 ft 320 kts 327°
2026-04-24 13:02 35.34152 75.47897 24823 ft 325 kts 328°
2026-04-24 13:02 35.36172 75.46696 25159 ft 331 kts 328°
2026-04-24 13:02 35.38279 75.45440 25262 ft 343 kts 328°
2026-04-24 13:02 35.40460 75.44131 25377 ft 355 kts 328°
2026-04-24 13:03 35.42711 75.42770 25493 ft 365 kts 328°
2026-04-24 13:03 35.45021 75.41365 25622 ft 376 kts 329°
2026-04-24 13:03 35.47410 75.39905 25743 ft 389 kts 329°
2026-04-24 13:03 35.49864 75.38402 25855 ft 401 kts 329°
2026-04-24 13:04 35.52373 75.36821 25990 ft 410 kts 326°
2026-04-24 13:04 35.54745 75.34820 26131 ft 415 kts 316°
2026-04-24 13:04 35.56826 75.32356 26243 ft 418 kts 307°
2026-04-24 13:04 35.58559 75.29485 26369 ft 421 kts 298°
2026-04-24 13:05 35.59891 75.26322 26489 ft 425 kts 289°
2026-04-24 13:05 35.60841 75.22880 26614 ft 430 kts 284°
2026-04-24 13:05 35.61707 75.19340 26856 ft 434 kts 284°
2026-04-24 13:05 35.62576 75.15780 27128 ft 436 kts 284°
2026-04-24 13:06 35.63442 75.12209 27397 ft 437 kts 284°
2026-04-24 13:06 35.64313 75.08620 27673 ft 438 kts 284°
2026-04-24 13:06 35.65183 75.05029 27921 ft 440 kts 283°
2026-04-24 13:06 35.66064 75.01410 28156 ft 443 kts 283°
2026-04-24 13:07 35.66946 74.97775 28362 ft 444 kts 283°
2026-04-24 13:07 35.67826 74.94127 28565 ft 446 kts 283°
2026-04-24 13:07 35.68704 74.90474 28913 ft 445 kts 283°
2026-04-24 13:07 35.69571 74.86862 29197 ft 445 kts 283°
2026-04-24 13:08 35.70252 74.83187 29472 ft 440 kts 274°
2026-04-24 13:08 35.70390 74.79457 29692 ft 435 kts 264°
2026-04-24 13:08 35.69977 74.75782 29920 ft 432 kts 255°
2026-04-24 13:09 35.67734 74.69058 30160 ft 429 kts 242°
2026-04-24 13:09 35.66345 74.65812 30147 ft 429 kts 242°
2026-04-24 13:09 35.63577 74.59316 30127 ft 429 kts 242°
2026-04-24 13:10 35.60817 74.52858 30109 ft 430 kts 242°
2026-04-24 13:10 35.58046 74.46372 30103 ft 429 kts 242°
2026-04-24 13:11 35.55275 74.39893 30080 ft 428 kts 242°
2026-04-24 13:11 35.52495 74.33428 30080 ft 428 kts 242°
2026-04-24 13:12 35.49723 74.27005 30096 ft 429 kts 242°
2026-04-24 13:12 35.46939 74.20534 30074 ft 428 kts 242°
2026-04-24 13:13 35.44159 74.14081 30082 ft 429 kts 242°
2026-04-24 13:13 35.41110 74.07812 30072 ft 428 kts 232°
2026-04-24 13:14 35.36964 74.02570 30087 ft 429 kts 226°
2026-04-24 13:14 35.32721 73.97423 30098 ft 429 kts 225°
2026-04-24 13:15 35.28509 73.92307 30112 ft 429 kts 225°
2026-04-24 13:15 35.24279 73.87175 30113 ft 428 kts 225°
2026-04-24 13:16 35.20034 73.82041 30115 ft 429 kts 225°
2026-04-24 13:16 35.15793 73.76921 30121 ft 429 kts 225°
2026-04-24 13:17 35.11550 73.71812 30133 ft 428 kts 225°
2026-04-24 13:17 35.07336 73.66743 30152 ft 428 kts 225°
2026-04-24 13:18 35.03103 73.61653 30166 ft 427 kts 225°
2026-04-24 13:18 34.98859 73.56559 30185 ft 427 kts 225°
2026-04-24 13:19 34.94624 73.51484 30177 ft 427 kts 225°
2026-04-24 13:19 34.90410 73.46444 30140 ft 427 kts 225°
2026-04-24 13:20 34.86175 73.41383 30134 ft 427 kts 225°
2026-04-24 13:20 34.81935 73.36328 30080 ft 426 kts 226°
2026-04-24 13:21 34.77693 73.31276 30068 ft 426 kts 226°
2026-04-24 13:21 34.73496 73.26278 30081 ft 425 kts 226°
2026-04-24 13:22 34.69275 73.21257 30023 ft 424 kts 226°
2026-04-24 13:22 34.65063 73.16255 29995 ft 424 kts 226°
2026-04-24 13:23 34.60641 73.11524 29998 ft 427 kts 216°
2026-04-24 13:23 34.58033 73.09874 29990 ft 431 kts 205°
2026-04-24 13:23 34.55139 73.08849 29911 ft 438 kts 194°
2026-04-24 13:24 34.48966 73.08689 29899 ft 448 kts 183°
2026-04-24 13:24 34.42727 73.08969 29885 ft 450 kts 183°
2026-04-24 13:25 34.36438 73.09236 29625 ft 453 kts 183°
2026-04-24 13:25 34.33327 73.09370 29341 ft 454 kts 183°
2026-04-24 13:25 34.30166 73.09512 29055 ft 455 kts 182°
2026-04-24 13:26 34.26999 73.09657 28788 ft 456 kts 182°
2026-04-24 13:26 34.23836 73.09802 28511 ft 456 kts 182°
2026-04-24 13:26 34.20668 73.09946 27515 ft 456 kts 182°
2026-04-24 13:26 34.17525 73.10088 26315 ft 448 kts 182°
2026-04-24 13:27 34.14427 73.10226 25181 ft 441 kts 182°
2026-04-24 13:27 34.11376 73.10360 24223 ft 438 kts 182°
2026-04-24 13:27 34.08366 73.10492 23452 ft 439 kts 182°
2026-04-24 13:27 34.05316 73.10626 22588 ft 438 kts 182°
2026-04-24 13:28 34.02289 73.10762 21875 ft 434 kts 181°
2026-04-24 13:28 33.99285 73.10898 21165 ft 431 kts 181°
2026-04-24 13:28 33.96297 73.11031 20451 ft 428 kts 181°
2026-04-24 13:28 33.93326 73.11160 19778 ft 425 kts 181°
2026-04-24 13:29 33.90381 73.11286 19110 ft 423 kts 181°
2026-04-24 13:29 33.87441 73.11410 18463 ft 421 kts 181°
2026-04-24 13:29 33.84529 73.11532 17774 ft 418 kts 181°
2026-04-24 13:29 33.81671 73.11655 17177 ft 413 kts 181°
2026-04-24 13:30 33.78820 73.11782 16607 ft 408 kts 181°
2026-04-24 13:30 33.76000 73.11911 16040 ft 404 kts 180°
2026-04-24 13:30 33.73203 73.12038 15495 ft 400 kts 180°
2026-04-24 13:30 33.70437 73.12159 14956 ft 396 kts 180°
2026-04-24 13:31 33.67697 73.12276 14418 ft 392 kts 180°
2026-04-24 13:31 33.64983 73.12395 13863 ft 389 kts 180°
2026-04-24 13:31 33.62282 73.12513 13288 ft 386 kts 180°
2026-04-24 13:31 33.59628 73.12558 12776 ft 380 kts 184°
2026-04-24 13:32 33.57029 73.12398 12077 ft 378 kts 187°
2026-04-24 13:32 33.54375 73.12084 11309 ft 378 kts 190°
2026-04-24 13:32 33.51827 73.11708 10903 ft 368 kts 191°
2026-04-24 13:32 33.49267 73.11328 10190 ft 369 kts 189°
2026-04-24 13:33 33.46822 73.10976 10044 ft 338 kts 190°
2026-04-24 13:33 33.44584 73.10659 9925 ft 311 kts 189°
2026-04-24 13:33 33.42498 73.10363 9616 ft 295 kts 189°
2026-04-24 13:33 33.40478 73.10075 9043 ft 289 kts 189°
2026-04-24 13:34 33.38479 73.09792 8562 ft 289 kts 189°
2026-04-24 13:34 33.36517 73.09525 8201 ft 287 kts 189°
2026-04-24 13:34 33.34540 73.09255 7818 ft 285 kts 189°
2026-04-24 13:34 33.32563 73.08984 7570 ft 286 kts 189°
2026-04-24 13:35 33.30580 73.08755 7327 ft 288 kts 181°
2026-04-24 13:35 33.28637 73.09294 7095 ft 290 kts 154°
2026-04-24 13:35 33.27085 73.10820 6909 ft 293 kts 127°
2026-04-24 13:35 33.26252 73.13008 6718 ft 291 kts 100°
2026-04-24 13:36 33.26316 73.15402 6536 ft 290 kts 72°
2026-04-24 13:36 33.27255 73.17501 6355 ft 287 kts 46°
2026-04-24 13:36 33.28836 73.18844 6165 ft 282 kts 19°
2026-04-24 13:36 33.30743 73.19190 6032 ft 278 kts 355°
2026-04-24 13:37 33.32661 73.18953 5985 ft 276 kts 347°
2026-04-24 13:37 33.34502 73.18312 5993 ft 276 kts 340°
2026-04-24 13:37 33.36311 73.17617 5988 ft 266 kts 340°
2026-04-24 13:37 33.38009 73.16969 5993 ft 247 kts 340°
2026-04-24 13:38 33.39620 73.16348 5994 ft 241 kts 338°
2026-04-24 13:38 33.41105 73.15452 5996 ft 240 kts 323°
2026-04-24 13:38 33.42353 73.14176 5997 ft 238 kts 316°
2026-04-24 13:38 33.43584 73.12821 5998 ft 239 kts 316°
2026-04-24 13:39 33.44799 73.11487 5950 ft 240 kts 316°
2026-04-24 13:39 33.46023 73.10141 5838 ft 238 kts 316°
2026-04-24 13:39 33.47250 73.08795 5600 ft 241 kts 317°
2026-04-24 13:39 33.48488 73.07438 5218 ft 241 kts 317°
2026-04-24 13:40 33.49701 73.06107 5073 ft 232 kts 317°
2026-04-24 13:40 33.50847 73.04799 4944 ft 224 kts 309°
2026-04-24 13:40 33.51565 73.03132 4717 ft 227 kts 283°
2026-04-24 13:40 33.51861 73.01286 4438 ft 225 kts 281°
2026-04-24 13:41 33.52148 72.99456 4146 ft 219 kts 282°
2026-04-24 13:41 33.52417 72.97748 3880 ft 205 kts 282°
2026-04-24 13:41 33.52674 72.96128 3633 ft 192 kts 283°
2026-04-24 13:41 33.52911 72.94625 3418 ft 177 kts 284°
2026-04-24 13:42 33.53131 72.93228 3192 ft 163 kts 284°
2026-04-24 13:42 33.53331 72.91962 3001 ft 148 kts 287°
2026-04-24 13:42 33.53513 72.90792 2829 ft 137 kts 284°
2026-04-24 13:42 33.53689 72.89694 2652 ft 134 kts 284°
2026-04-24 13:43 33.53863 72.88583 2451 ft 138 kts 286°
2026-04-24 13:43 33.54039 72.87456 2270 ft 139 kts 284°
2026-04-24 13:43 33.54215 72.86317 2090 ft 142 kts 283°
2026-04-24 13:43 33.54395 72.85173 1927 ft 139 kts 284°
2026-04-24 13:44 33.54572 72.84050 1767 ft 131 kts 283°
2026-04-24 13:44 33.54720 72.83135 1762 ft 89 kts 280°
2026-04-24 13:44 33.54800 72.82606 1756 ft 42 kts 280°
2026-04-24 13:44 33.54840 72.82420 1753 ft 15 kts 316°
2026-04-24 13:45 33.54937 72.82417 1764 ft 13 kts 10°
2026-04-24 13:45 33.55045 72.82441 1761 ft 18 kts 10°
2026-04-24 13:45 33.55161 72.82466 1771 ft 15 kts 13°
2026-04-24 13:45 33.55263 72.82492 1770 ft 15 kts 11°
2026-04-24 13:46 33.55372 72.82518 1771 ft 17 kts 10°
2026-04-24 13:46 33.55469 72.82564 1773 ft 15 kts 58°
2026-04-24 13:46 33.55508 72.82655 1770 ft 12 kts 20°
2026-04-24 13:46 33.55594 72.82675 1772 ft 13 kts 10°
2026-04-24 13:47 33.55690 72.82697 1771 ft 15 kts 11°
2026-04-24 13:47 33.55793 72.82720 1771 ft 12 kts 10°
2026-04-24 13:47 33.55841 72.82786 1770 ft 11 kts 89°
2026-04-24 13:47 33.55826 72.82884 1772 ft 13 kts 101°
2026-04-24 13:48 33.55811 72.82982 1771 ft 12 kts 99°
2026-04-24 13:48 33.55804 72.83070 1770 ft 10 kts 77°
2026-04-24 13:48 33.55822 72.83141 1771 ft 8 kts 97°
2026-04-24 13:48 33.55813 72.83193 1771 ft 3 kts 99°
2026-04-24 13:49 33.55811 72.83207 1771 ft 0 kts 99°